2022-098R (53459 NORAD) Tracking and Keplerian Element Data

This shows tracking and keplerian element data for the satellite.

Feedback or suggestion? Click here.




ElementValue
Catalog53459
Name2022-098R
Epoch Orbit1552
Epoch Day325.09481574
Epoch Year2022
RAAN59.8638
Inclination97.5297
Eccentricity0.000619
Argument of Perigee295.4125
Mean Anonmoly186.2295
Mean Motion15.12594097
Decay Rate5.114E-05
L11 53459U 22098R 22325.09481574 .00005114 00000+0 29659-3 0 9993
L22 53459 97.5297 59.8638 0006190 295.4125 186.2295 15.12594097 15529



Live tracking and technical data element details for 2022-098R (NORAD 53459). 2022-098R can be tracked NOW for your location showing map with azimuth and elevation plus other details from your city location.







IsCatalogInMostPopularTable: catalog: 53459, numindb: 6
Update: records affected: 1



GetName: 53459 2022-098R

Hit Count: updated at: Thu, 08 Dec 2022 19:43:54 GMT